Retour au catalogue

THORAD AGENA D DEB

ActifLEO
NORAD 4819·DEBRIS·🇺🇸 United States

Lancé Apr 8, 1970 depuis Vandenberg Space Force Base

Loading…

Prochains Passages (prochaines 24 heures)

TLE

FraisSource: Space-Track

Époque: Sep 14, 2026, 13:14 UTC

1 04819U 70025EA  26257.55202891  .00003364  00000-0  10867-2 0  9990
2 04819 100.1017 294.0224 0028943  21.8181 338.4227 14.39724618857020

Suivez THORAD AGENA D DEB en temps réel avec AllMySat

Download on the App Store